• In Hungary
  • List of Countries
  • For 7 days
  • Water Temperature
  • Satellite Maps
  • Weather Map
  • News
  • Weather Widgets
  • user-avatar
    Login

    Hourly Weather Quito

    Today, 20 February, Tuesday

    Time Temperature Precipitation Wind Pressure Humidity
    00:00 +9°C° 0.5 mm 0 mps 535 mmHg 95%
    01:00 +9°C° 0.5 mm 0 mps 535 mmHg 95%
    02:00 +9°C° 0.5 mm 0 mps 535 mmHg 94%
    03:00 +9°C° 0.5 mm 0 mps 535 mmHg 93%
    04:00 +9°C° 0.5 mm 0 mps 534 mmHg 92%
    05:00 +9°C° 0.2 mm 0 mps 534 mmHg 91%
    06:00 +9°C° 0.2 mm 0 mps 535 mmHg 90%
    07:00 +9°C° 0.2 mm 0 mps 535 mmHg 89%
    08:00 +12°C° 0.1 mm 1 mps 536 mmHg 84%
    09:00 +13°C° 0.1 mm 1 mps 537 mmHg 78%
    10:00 +15°C° 0.1 mm 1 mps 539 mmHg 72%
    11:00 +15°C° 0.2 mm 2 mps 538 mmHg 73%
    12:00 +15°C° 0.2 mm 2 mps 538 mmHg 73%
    13:00 +16°C° 0.2 mm 2 mps 538 mmHg 74%
    14:00 +15°C° 0.5 mm 2 mps 537 mmHg 77%
    15:00 +14°C° 0.5 mm 2 mps 536 mmHg 81%
    16:00 +14°C° 0.5 mm 2 mps 536 mmHg 84%
    17:00 +13°C° 0.6 mm 1 mps 535 mmHg 88%
    18:00 +12°C° 0.6 mm 1 mps 535 mmHg 91%
    19:00 +11°C° 0.6 mm 1 mps 535 mmHg 95%
    20:00 +11°C° 0.3 mm 1 mps 535 mmHg 95%
    21:00 +10°C° 0.3 mm 0 mps 535 mmHg 95%
    22:00 +10°C° 0.3 mm 0 mps 536 mmHg 95%
    23:00 +9°C° 0.1 mm 0 mps 536 mmHg 93%

    Tomorrow, 21 February, Wednesday

    Time Temperature Precipitation Wind Pressure Humidity
    00:00 +9°C° 0.1 mm 0 mps 535 mmHg 92%
    01:00 +9°C° 0.1 mm 0 mps 535 mmHg 91%
    02:00 +9°C° 0.1 mm 0 mps 535 mmHg 90%
    03:00 +8°C° 0.1 mm 0 mps 534 mmHg 89%
    04:00 +8°C° 0.1 mm 0 mps 534 mmHg 87%
    05:00 +8°C° 0 mm 0 mps 534 mmHg 86%
    06:00 +9°C° 0 mm 1 mps 535 mmHg 85%
    07:00 +9°C° 0 mm 1 mps 535 mmHg 84%
    08:00 +11°C° 0 mm 1 mps 536 mmHg 78%
    09:00 +14°C° 0 mm 1 mps 538 mmHg 72%
    10:00 +16°C° 0 mm 1 mps 539 mmHg 66%
    11:00 +16°C° 0.3 mm 2 mps 539 mmHg 68%
    12:00 +16°C° 0.3 mm 2 mps 539 mmHg 69%
    13:00 +16°C° 0.3 mm 2 mps 538 mmHg 70%
    14:00 +15°C° 0.8 mm 2 mps 537 mmHg 74%
    15:00 +15°C° 0.8 mm 2 mps 537 mmHg 77%
    16:00 +14°C° 0.8 mm 2 mps 536 mmHg 80%
    17:00 +13°C° 0.7 mm 2 mps 536 mmHg 85%
    18:00 +12°C° 0.7 mm 1 mps 535 mmHg 90%
    19:00 +11°C° 0.7 mm 1 mps 535 mmHg 95%
    20:00 +11°C° 0.5 mm 1 mps 536 mmHg 95%
    21:00 +10°C° 0.5 mm 0 mps 536 mmHg 95%
    22:00 +10°C° 0.5 mm 0 mps 536 mmHg 95%
    23:00 +9°C° 0.4 mm 0 mps 536 mmHg 95%

    Day after tomorrow, 22 February, Thursday

    Time Temperature Precipitation Wind Pressure Humidity
    00:00 +9°C° 0.4 mm 0 mps 536 mmHg 95%
    01:00 +9°C° 0.4 mm 0 mps 536 mmHg 94%
    02:00 +9°C° 0.3 mm 0 mps 535 mmHg 94%
    03:00 +8°C° 0.3 mm 0 mps 535 mmHg 94%
    04:00 +8°C° 0.3 mm 0 mps 534 mmHg 94%
    05:00 +8°C° 0.1 mm 0 mps 535 mmHg 93%
    06:00 +8°C° 0.1 mm 0 mps 535 mmHg 92%
    07:00 +8°C° 0.1 mm 0 mps 535 mmHg 91%
    08:00 +11°C° 0 mm 1 mps 536 mmHg 83%
    09:00 +13°C° 0 mm 1 mps 538 mmHg 74%
    10:00 +15°C° 0 mm 1 mps 539 mmHg 66%
    11:00 +15°C° 0.3 mm 2 mps 539 mmHg 68%
    12:00 +15°C° 0.3 mm 2 mps 538 mmHg 70%
    13:00 +16°C° 0.3 mm 2 mps 538 mmHg 71%
    14:00 +15°C° 0.6 mm 2 mps 537 mmHg 75%
    15:00 +14°C° 0.6 mm 2 mps 536 mmHg 78%
    16:00 +14°C° 0.6 mm 2 mps 535 mmHg 82%
    17:00 +12°C° 0.5 mm 2 mps 535 mmHg 86%
    18:00 +11°C° 0.5 mm 1 mps 535 mmHg 90%
    19:00 +10°C° 0.5 mm 1 mps 535 mmHg 94%
    20:00 +10°C° 0.2 mm 1 mps 535 mmHg 94%
    21:00 +9°C° 0.2 mm 0 mps 535 mmHg 94%
    22:00 +9°C° 0.2 mm 0 mps 536 mmHg 94%
    23:00 +9°C° 0.1 mm 0 mps 535 mmHg 93%

    23 February, Friday

    Time Temperature Precipitation Wind Pressure Humidity
    00:00 +8°C° 0.1 mm 0 mps 535 mmHg 91%
    01:00 +8°C° 0.1 mm 0 mps 535 mmHg 90%
    02:00 +8°C° 0.1 mm 0 mps 535 mmHg 90%
    03:00 +8°C° 0.1 mm 0 mps 534 mmHg 90%
    04:00 +8°C° 0.1 mm 0 mps 534 mmHg 90%
    05:00 +8°C° 0 mm 0 mps 534 mmHg 88%
    06:00 +9°C° 0 mm 1 mps 534 mmHg 86%
    07:00 +9°C° 0 mm 1 mps 535 mmHg 84%
    08:00 +11°C° 0 mm 1 mps 536 mmHg 76%
    09:00 +13°C° 0 mm 1 mps 538 mmHg 68%
    10:00 +16°C° 0 mm 1 mps 539 mmHg 59%
    11:00 +16°C° 0.2 mm 2 mps 539 mmHg 62%
    12:00 +16°C° 0.2 mm 2 mps 538 mmHg 64%
    13:00 +16°C° 0.2 mm 2 mps 537 mmHg 67%
    14:00 +15°C° 0.4 mm 2 mps 536 mmHg 73%
    15:00 +14°C° 0.4 mm 2 mps 535 mmHg 79%
    16:00 +13°C° 0.4 mm 2 mps 534 mmHg 85%
    17:00 +12°C° 0.4 mm 1 mps 534 mmHg 88%
    18:00 +11°C° 0.4 mm 1 mps 534 mmHg 91%
    19:00 +10°C° 0.4 mm 1 mps 534 mmHg 94%
    20:00 +10°C° 0.2 mm 1 mps 534 mmHg 93%
    21:00 +9°C° 0.2 mm 0 mps 534 mmHg 93%
    22:00 +8°C° 0.2 mm 0 mps 535 mmHg 92%
    23:00 +8°C° 0.1 mm 0 mps 535 mmHg 91%

    24 February, Saturday

    Time Temperature Precipitation Wind Pressure Humidity
    00:00 +8°C° 0.1 mm 0 mps 534 mmHg 89%
    01:00 +8°C° 0.1 mm 0 mps 534 mmHg 87%
    02:00 +8°C° 0.1 mm 0 mps 534 mmHg 86%
    03:00 +7°C° 0.1 mm 0 mps 533 mmHg 86%
    04:00 +7°C° 0.1 mm 0 mps 533 mmHg 85%
    05:00 +7°C° 0 mm 0 mps 533 mmHg 84%
    06:00 +8°C° 0 mm 1 mps 534 mmHg 82%
    07:00 +9°C° 0 mm 1 mps 534 mmHg 81%
    08:00 +11°C° 0 mm 1 mps 536 mmHg 74%
    09:00 +13°C° 0 mm 1 mps 537 mmHg 67%
    10:00 +15°C° 0 mm 1 mps 539 mmHg 60%
    11:00 +16°C° 0.1 mm 2 mps 538 mmHg 62%
    12:00 +16°C° 0.1 mm 2 mps 538 mmHg 64%
    13:00 +16°C° 0.1 mm 2 mps 537 mmHg 65%
    14:00 +15°C° 0.4 mm 2 mps 536 mmHg 72%
    15:00 +13°C° 0.4 mm 2 mps 535 mmHg 79%
    16:00 +12°C° 0.4 mm 2 mps 534 mmHg 86%
    17:00 +11°C° 0.3 mm 1 mps 534 mmHg 89%
    18:00 +10°C° 0.3 mm 1 mps 534 mmHg 91%
    19:00 +10°C° 0.3 mm 1 mps 534 mmHg 93%
    20:00 +9°C° 0.1 mm 1 mps 534 mmHg 92%
    21:00 +9°C° 0.1 mm 1 mps 534 mmHg 91%
    22:00 +9°C° 0.1 mm 1 mps 535 mmHg 90%
    23:00 +8°C° 0 mm 1 mps 534 mmHg 88%

    25 February, Sunday

    Time Temperature Precipitation Wind Pressure Humidity
    00:00 +8°C° 0 mm 1 mps 534 mmHg 86%
    01:00 +8°C° 0 mm 1 mps 533 mmHg 84%
    02:00 +7°C° 0 mm 1 mps 533 mmHg 82%
    03:00 +7°C° 0 mm 1 mps 533 mmHg 80%
    04:00 +7°C° 0 mm 1 mps 533 mmHg 78%
    05:00 +7°C° 0 mm 1 mps 533 mmHg 76%
    06:00 +7°C° 0 mm 1 mps 534 mmHg 74%
    07:00 +8°C° 0 mm 1 mps 534 mmHg 71%
    08:00 +10°C° 0 mm 1 mps 536 mmHg 64%
    09:00 +13°C° 0 mm 1 mps 537 mmHg 58%
    10:00 +16°C° 0 mm 1 mps 539 mmHg 51%
    11:00 +16°C° 0.1 mm 2 mps 539 mmHg 53%
    12:00 +16°C° 0.1 mm 2 mps 538 mmHg 56%
    13:00 +17°C° 0.1 mm 2 mps 538 mmHg 58%
    14:00 +15°C° 0.3 mm 2 mps 537 mmHg 67%
    15:00 +14°C° 0.3 mm 2 mps 536 mmHg 75%
    16:00 +13°C° 0.3 mm 2 mps 534 mmHg 83%
    17:00 +12°C° 0.3 mm 1 mps 534 mmHg 87%
    18:00 +11°C° 0.3 mm 1 mps 534 mmHg 91%
    19:00 +10°C° 0.3 mm 1 mps 534 mmHg 94%
    20:00 +10°C° 0.1 mm 1 mps 534 mmHg 94%
    21:00 +10°C° 0.1 mm 1 mps 535 mmHg 93%
    22:00 +8°C° 0.1 mm 0 mps 535 mmHg 93%
    23:00 +8°C° 0 mm 0 mps 534 mmHg 92%
    Show more